Find Kuiper-00150

NORAD ID: 65770 Int'l Des: 2025-217 Owner: KUIP Country: US Constellation: amazon-leo operational
LEOCIRCULAR

Current View

Loading 3D Globe...

About Kuiper-00150

Description loading...

Upcoming Passes

Passes for default location (London). Set your location on the main map for personalized predictions.

Altitude History

Loading altitude history...

Two-Line Element Set

1 65770U 25217J 26146.16567888 .00004617 00000-0 63404-3 0 9998
2 65770 51.9011 68.0145 0000827 96.4729 263.6327 14.79944317 36245
Epoch: May 26, 2026 • Age: 14 hours

Current Status

Altitude 630.1 km
Velocity 7.54 km/s
Sub-Earth Point 0.58°N, 94.49°E
Launch Date Sep 25, 2025
Age 0.6 years
Type internet

Technical Details

Classification Payload
Mass 490.00 kg
Dry Mass 490.00 kg
Total Mass 490.00 kg
Length 1.80 m
Diameter 0.70 m
Span 5.00 m
Shape Box + 2 pan
Manufacturer KUIP
Bus Type Kuiper
Phase Status In Orbit
Owner/State KUIP/US

Most Searched